[[{"header":{"parameterUnit":"m.s-1","parameterCategory":1,"la1":30.2991,"la2":30.254,"lo1":-89.0895,"lo2":-89.0444,"dy":0.0017,"dx":0.0017,"nx":28,"ny":28,"refTime":"2023-09-14T21:00:00:Z","depth":0,"parameterNumber":2,"parameterNumberName":"U-component_of_WINDS"},"data":[0,0,0,0,0,0,0,0,0,0,0,0,0,0,0,0,0,0,0,0,0,0,0,0,0,0,0,0,0,0,0,0,0,0,0,0,0,0,0,0,0,0,0,0,0,0,0,0,0,0,0,0,0,0,0,0,0,0,-1.8406,-1.8405,0,-1.8261,-1.8259,-1.8257,-1.8124,-1.8122,-1.8121,-1.8119,-1.7962,-1.7959,-1.7957,0,0,0,0,0,0,0,0,0,0,0,0,0,-1.8562,-1.856,-1.8406,-1.8404,-1.8403,-1.8261,-1.8259,-1.8257,-1.8124,-1.8122,-1.812,-1.8119,-1.7963,-1.796,-1.7957,0,0,0,0,0,0,0,0,0,0,0,0,0,-1.8463,-1.8559,-1.8407,-1.832,-1.831,-1.8261,-1.8259,-1.8256,-1.8125,-1.8122,-1.812,-1.8118,-1.7964,-1.796,-1.7956,-1.7979,0,0,-1.7944,-1.7942,0,0,0,0,0,0,0,0,-1.8469,-1.8458,-1.8334,-1.8325,-1.8315,-1.8208,-1.8256,-1.8163,-1.8125,-1.8195,-1.8119,-1.8117,-1.8045,-1.8034,-1.8012,-1.7972,-1.7965,-1.7943,-1.7941,-1.7939,-1.7938,0,0,0,0,0,0,0,-1.8476,-1.8463,-1.8348,-1.8332,-1.8321,-1.8285,-1.8269,-1.8238,-1.8135,-1.8189,-1.8179,-1.8164,-1.804,-1.8016,-1.8007,-1.7962,-1.7943,-1.794,-1.7937,-1.7936,-1.7933,-1.7935,0,0,0,0,0,0,-1.8497,-1.847,-1.8353,-1.8344,-1.8388,-1.8285,-1.8266,-1.8245,-1.8135,-1.8116,-1.8166,-1.8158,-1.8024,-1.8012,-1.8001,-1.8021,-1.7939,-1.7935,-1.7933,-1.7931,-1.7934,-1.7936,0,0,0,0,0,0,-1.8501,-1.8488,-1.8359,-1.8404,-1.8385,-1.8285,-1.8262,-1.8243,-1.822,-1.8118,-1.8098,-1.8162,-1.8022,-1.8007,-1.7986,-1.8014,-1.7934,-1.793,-1.7928,-1.7932,-1.7935,-1.8061,0,0,0,0,0,0,-1.8506,-1.849,-1.85,-1.8405,-1.8383,-1.8349,-1.8263,-1.8242,-1.8214,-1.8203,-1.8109,-1.8091,-1.8019,-1.7993,-1.7982,-1.8007,-1.7927,-1.7925,-1.793,-1.7934,-1.8054,-1.8069,-1.8081,0,0,0,0,0,-1.8512,-1.8539,-1.8501,-1.8487,-1.8393,-1.8351,-1.8337,-1.8257,-1.8217,-1.8225,-1.8159,-1.8094,-1.8013,-1.7992,-1.7979,-1.8003,-1.7923,-1.7928,-1.7933,-1.8048,-1.8066,-1.8081,0,0,0,0,0,0,-1.8636,-1.8525,-1.8481,-1.8479,-1.8426,-1.8328,-1.8335,-1.8278,-1.8233,-1.8223,-1.8122,-1.8102,-1.8093,-1.8045,-1.8024,-1.8019,-1.7959,-1.7962,-1.8051,-1.8067,-1.808,-1.8091,-1.7923,0,0,0,0,0,-1.8664,-1.8641,-1.8544,-1.8551,-1.8527,-1.8437,-1.8415,-1.8358,-1.8297,-1.8273,-1.8205,-1.8147,-1.8108,-1.8084,-1.8043,-1.8047,-1.8024,-1.8056,-1.807,-1.8082,-1.8085,-1.8083,-1.8097,-1.7954,-1.7953,-1.7953,0,0,-1.8719,-1.8656,-1.8647,-1.8575,-1.8526,-1.8503,-1.8418,-1.8396,-1.8377,-1.8268,-1.8246,-1.8195,-1.8122,-1.8114,-1.8107,-1.8074,-1.812,-1.8088,-1.8099,-1.8095,-1.809,-1.8104,-1.8116,-1.7957,-1.7956,-1.7956,0,0,-1.8809,-1.8759,-1.876,-1.8715,-1.8644,-1.8584,-1.8584,-1.8496,-1.8459,-1.8435,-1.8353,-1.8327,-1.8262,-1.8215,-1.8182,-1.8256,-1.8193,-1.8245,-1.8315,-1.8315,-1.8326,-1.8335,-1.8362,-1.8372,-1.8248,-1.8249,-1.8249,0,-1.8887,-1.8851,-1.8767,-1.8752,-1.8722,-1.8626,-1.8625,-1.8583,-1.8502,-1.8483,-1.8447,-1.8366,-1.831,-1.8289,-1.8308,-1.8284,-1.828,-1.8255,-1.8332,-1.834,-1.8348,-1.8372,-1.8382,-1.8255,-1.8255,-1.8254,-1.8253,0,-1.895,-1.8926,-1.8935,-1.8863,-1.8833,-1.8825,-1.8739,-1.8719,-1.8665,-1.8608,-1.8584,-1.8514,-1.8458,-1.8448,-1.8393,-1.842,-1.8402,-1.8351,-1.8288,-1.837,-1.839,-1.8399,-1.8265,-1.8263,-1.8261,-1.8259,0,0,-1.9112,-1.8996,-1.9,-1.8967,-1.8882,-1.8861,-1.8848,-1.8796,-1.8781,-1.8727,-1.8713,-1.8662,-1.8614,-1.8577,-1.8516,-1.8516,-1.8579,-1.8464,-1.8461,-1.8488,-1.8604,-1.8643,-1.8655,-1.8538,-1.8539,-1.854,-1.861,0,-1.9188,-1.9163,-1.9088,-1.9084,-1.9061,-1.8969,-1.8958,-1.8904,-1.885,-1.882,-1.8759,-1.8725,-1.8665,-1.8642,-1.8638,-1.8573,-1.8601,-1.8566,-1.8522,-1.8521,-1.8543,-1.8666,-1.8707,-1.8777,-1.8617,-1.8619,-1.862,0,-1.9273,-1.923,-1.9226,-1.9143,-1.9131,-1.9122,-1.9068,-1.9042,-1.8978,-1.8939,-1.8899,-1.8832,-1.8811,-1.8754,-1.8723,-1.8702,-1.8679,-1.8644,-1.8644,-1.8637,-1.8576,-1.8662,-1.8796,-1.8807,-1.8631,-1.863,-1.863,0,-1.9394,-1.9334,-1.9323,-1.9297,-1.9201,-1.9197,-1.9156,-1.909,-1.9064,-1.9016,-1.8997,-1.8946,-1.8919,-1.888,-1.88,-1.8766,-1.8778,-1.8714,-1.8743,-1.8746,-1.875,-1.8751,-1.8883,-1.8736,-1.8735,-1.8735,-1.8735,0,-1.9487,-1.9487,-1.9376,-1.937,-1.9368,-1.928,-1.928,-1.9229,-1.9172,-1.9152,-1.9068,-1.9052,-1.8948,-1.8918,-1.8855,-1.8839,-1.8827,-1.8793,-1.8777,-1.8801,-1.8806,-1.8784,-1.8778,-1.8738,-1.8737,-1.8737,-1.8736,0,-1.962,-1.9546,-1.9529,-1.944,-1.9418,-1.942,-1.9343,-1.9332,-1.9274,-1.925,-1.924,-1.9148,-1.9108,-1.9026,-1.8963,-1.892,-1.8919,-1.8889,-1.8942,-1.8932,-1.8966,-1.8965,-1.909,-1.9102,-1.8947,-1.8949,-1.895,0,-1.9685,-1.9684,-1.9596,-1.9579,-1.9542,-1.9515,-1.9488,-1.9402,-1.9377,-1.9306,-1.9303,-1.9258,-1.9218,-1.9159,-1.9085,-1.9036,-1.9004,-1.9052,-1.8996,-1.9021,-1.9005,-1.9007,-1.9006,-1.9064,-1.9066,-1.9068,-1.907,0,-1.9807,-1.9771,-1.9738,-1.9692,-1.9664,-1.9623,-1.9577,-1.9567,-1.9469,-1.9445,-1.9406,-1.9375,-1.9313,-1.9269,-1.921,-1.9164,-1.91,-1.9088,-1.9092,-1.9117,-1.9148,-1.9132,-1.8976,-1.9085,-1.9084,-1.9082,-1.9082,-1.9081,-1.9908,-1.9903,-1.9842,-1.9807,-1.9764,-1.9724,-1.971,-1.9652,-1.9619,-1.9564,-1.9513,-1.9479,-1.9414,-1.9329,-1.9288,-1.9258,-1.9226,-1.9232,-1.9234,-1.9237,-1.9247,-1.9154,-1.9246,-1.9246,-1.9245,-1.9245,-1.9244,0,-2.0026,-1.9983,-1.9952,-1.9893,-1.9866,-1.9811,-1.9758,-1.9738,-1.971,-1.9656,-1.9619,-1.9574,-1.9531,-1.9455,-1.9405,-1.9395,-1.9365,-1.9385,-1.9385,-1.9375,-1.9278,-1.928,-1.9411,-1.9411,-1.9411,-1.9411,-1.9411,-1.9411,-2.0085,-2.0074,-2.0031,-1.9998,-1.9953,-1.9921,-1.9896,-1.9857,-1.9814,-1.9769,-1.9734,-1.9686,-1.9622,-1.9567,-1.9525,-1.9503,-1.9488,-1.9518,-1.9487,-1.9398,-1.9382,-1.9367,-1.9368,-1.9516,-1.9516,-1.9587,-1.9587,-1.9588]},{"header":{"parameterUnit":"m.s-1","parameterCategory":1,"la1":30.2991,"la2":30.254,"lo1":-89.0895,"lo2":-89.0444,"dy":0.0017,"dx":0.0017,"nx":28,"ny":28,"refTime":"2023-09-14T21:00:00:Z","depth":0,"parameterNumber":3,"parameterNumberName":"V-component_of_WINDS"},"data":[0,0,0,0,0,0,0,0,0,0,0,0,0,0,0,0,0,0,0,0,0,0,0,0,0,0,0,0,0,0,0,0,0,0,0,0,0,0,0,0,0,0,0,0,0,0,0,0,0,0,0,0,0,0,0,0,0,0,-2.8741,-2.8742,0,-2.8813,-2.8814,-2.8815,-2.8847,-2.8847,-2.8847,-2.8847,-2.8914,-2.8915,-2.8917,0,0,0,0,0,0,0,0,0,0,0,0,0,-2.8624,-2.8626,-2.8741,-2.8742,-2.8743,-2.8813,-2.8814,-2.8815,-2.8847,-2.8847,-2.8847,-2.8847,-2.8913,-2.8915,-2.8917,0,0,0,0,0,0,0,0,0,0,0,0,0,-2.8683,-2.8626,-2.8741,-2.8767,-2.877,-2.8813,-2.8814,-2.8815,-2.8847,-2.8847,-2.8847,-2.8847,-2.8912,-2.8915,-2.8918,-2.8937,0,0,-2.8926,-2.8927,0,0,0,0,0,0,0,0,-2.8679,-2.8687,-2.8762,-2.8765,-2.8769,-2.8821,-2.8797,-2.8856,-2.8847,-2.8818,-2.8847,-2.8846,-2.8882,-2.8888,-2.8901,-2.894,-2.8943,-2.8926,-2.8928,-2.8929,-2.893,0,0,0,0,0,0,0,-2.8675,-2.8684,-2.8769,-2.8763,-2.8767,-2.8773,-2.8782,-2.8808,-2.8849,-2.882,-2.8823,-2.8831,-2.8884,-2.8898,-2.8903,-2.8944,-2.8926,-2.8929,-2.893,-2.8932,-2.9003,-2.9003,0,0,0,0,0,0,-2.8668,-2.8681,-2.8767,-2.8771,-2.8723,-2.8775,-2.8785,-2.8804,-2.8849,-2.8856,-2.8831,-2.8832,-2.8894,-2.89,-2.8905,-2.8932,-2.8929,-2.8932,-2.8933,-2.9002,-2.9003,-2.9003,0,0,0,0,0,0,-2.8665,-2.8675,-2.8764,-2.8727,-2.8739,-2.8778,-2.8799,-2.8806,-2.882,-2.8858,-2.8864,-2.8839,-2.8894,-2.8901,-2.893,-2.8935,-2.8933,-2.8936,-2.9002,-2.9003,-2.9003,-2.8984,0,0,0,0,0,0,-2.8662,-2.8674,-2.8683,-2.8727,-2.874,-2.8789,-2.88,-2.8807,-2.8826,-2.8828,-2.8867,-2.8873,-2.8894,-2.8925,-2.8932,-2.8938,-2.8938,-2.9002,-2.9002,-2.9003,-2.8985,-2.8984,-2.8983,0,0,0,0,0,-2.8657,-2.8673,-2.8684,-2.8694,-2.8753,-2.8789,-2.8796,-2.8823,-2.8826,-2.8835,-2.8859,-2.8872,-2.8933,-2.8928,-2.8936,-2.8943,-2.9002,-2.9002,-2.9003,-2.8985,-2.8984,-2.8983,0,0,0,0,0,0,-2.8627,-2.868,-2.8692,-2.8723,-2.8751,-2.8794,-2.8806,-2.8821,-2.8848,-2.8848,-2.8878,-2.8886,-2.8912,-2.893,-2.8923,-2.8964,-2.8968,-2.897,-2.8952,-2.8951,-2.8951,-2.8946,-2.894,0,0,0,0,0,-2.8624,-2.8651,-2.8695,-2.8718,-2.8732,-2.8767,-2.8783,-2.8801,-2.8831,-2.8843,-2.8869,-2.8896,-2.8921,-2.8937,-2.8962,-2.8987,-2.8996,-2.8996,-2.8995,-2.8994,-2.8996,-2.9011,-2.9012,-2.9005,-2.9005,-2.9005,0,0,-2.8618,-2.865,-2.8665,-2.8712,-2.8737,-2.8763,-2.8776,-2.8802,-2.8821,-2.8846,-2.8875,-2.8895,-2.8927,-2.8954,-2.8966,-2.8969,-2.9,-2.8995,-2.8994,-2.8996,-2.9012,-2.9012,-2.9013,-2.9005,-2.9005,-2.9005,0,0,-2.862,-2.8647,-2.867,-2.8695,-2.8733,-2.8756,-2.8761,-2.8803,-2.8818,-2.8848,-2.8867,-2.8889,-2.8932,-2.8954,-2.8971,-2.8982,-2.8995,-2.8989,-2.8986,-2.9,-2.9001,-2.9001,-2.9006,-2.9007,-2.899,-2.899,-2.899,0,-2.8607,-2.8649,-2.8679,-2.8705,-2.8725,-2.8752,-2.8774,-2.8796,-2.8839,-2.8851,-2.8854,-2.891,-2.8932,-2.8965,-2.8968,-2.8981,-2.8987,-2.8985,-2.8999,-2.9,-2.9,-2.9005,-2.9007,-2.8989,-2.899,-2.899,-2.899,0,-2.8631,-2.8659,-2.8673,-2.8717,-2.8739,-2.8762,-2.8795,-2.8812,-2.8828,-2.8851,-2.8881,-2.8909,-2.8942,-2.895,-2.8965,-2.8985,-2.8986,-2.8993,-2.8998,-2.9,-2.9005,-2.9007,-2.8988,-2.8989,-2.8989,-2.8989,0,0,-2.8615,-2.8678,-2.8682,-2.8703,-2.8747,-2.8769,-2.8793,-2.8827,-2.8842,-2.887,-2.8891,-2.8927,-2.8935,-2.8954,-2.8971,-2.8984,-2.8992,-2.899,-2.8991,-2.899,-2.9016,-2.9011,-2.9013,-2.9,-2.9001,-2.9001,-2.9014,0,-2.8624,-2.8673,-2.8701,-2.8737,-2.8764,-2.8789,-2.881,-2.8838,-2.886,-2.8883,-2.8906,-2.8932,-2.8939,-2.8951,-2.8965,-2.8988,-2.8998,-2.8987,-2.9019,-2.902,-2.9011,-2.9015,-2.901,-2.902,-2.9016,-2.9016,-2.9016,0,-2.8641,-2.8673,-2.8712,-2.8755,-2.8767,-2.8786,-2.882,-2.8843,-2.8874,-2.8889,-2.8911,-2.8929,-2.8954,-2.8956,-2.8991,-2.8983,-2.8998,-2.9011,-2.9012,-2.9016,-2.9019,-2.902,-2.9024,-2.9026,-2.902,-2.9019,-2.9019,0,-2.8627,-2.8679,-2.871,-2.8727,-2.8777,-2.8789,-2.881,-2.8842,-2.8861,-2.889,-2.8902,-2.8932,-2.8948,-2.897,-2.8995,-2.8995,-2.9027,-2.9032,-2.9039,-2.9039,-2.9045,-2.9045,-2.9052,-2.9053,-2.9053,-2.9053,-2.9053,0,-2.8635,-2.8658,-2.8705,-2.8724,-2.875,-2.8781,-2.8806,-2.8828,-2.8857,-2.8879,-2.8901,-2.8921,-2.8953,-2.8976,-2.8995,-2.9021,-2.9028,-2.9039,-2.9044,-2.9038,-2.9037,-2.9048,-2.9048,-2.9054,-2.9054,-2.9053,-2.9053,0,-2.8624,-2.8656,-2.8692,-2.8737,-2.8749,-2.8766,-2.8804,-2.8822,-2.8845,-2.8873,-2.8881,-2.8915,-2.8944,-2.8971,-2.9008,-2.9021,-2.9048,-2.9054,-2.9038,-2.9041,-2.9047,-2.9047,-2.9063,-2.9067,-2.9064,-2.9064,-2.9064,0,-2.8627,-2.8646,-2.8694,-2.8712,-2.8734,-2.8762,-2.8782,-2.8813,-2.8833,-2.8871,-2.8885,-2.8916,-2.8942,-2.8986,-2.9013,-2.9042,-2.9049,-2.9053,-2.9054,-2.9047,-2.905,-2.9049,-2.9051,-2.9053,-2.9052,-2.9052,-2.9052,0,-2.8629,-2.8645,-2.8675,-2.8711,-2.8735,-2.8764,-2.8793,-2.8805,-2.8841,-2.8862,-2.8893,-2.8914,-2.8954,-2.8984,-2.9016,-2.9035,-2.9049,-2.9052,-2.9055,-2.9049,-2.904,-2.9046,-2.9037,-2.9052,-2.9052,-2.9052,-2.9052,-2.9052,-2.8626,-2.8645,-2.8682,-2.8715,-2.8741,-2.8768,-2.8788,-2.8814,-2.8842,-2.8879,-2.8894,-2.8926,-2.8957,-2.9002,-2.9021,-2.9044,-2.9047,-2.9052,-2.9054,-2.9054,-2.9054,-2.9036,-2.905,-2.905,-2.905,-2.905,-2.905,0,-2.8631,-2.8656,-2.8686,-2.8728,-2.8753,-2.8767,-2.88,-2.882,-2.8849,-2.8878,-2.8904,-2.894,-2.8969,-2.8999,-2.903,-2.9043,-2.905,-2.905,-2.905,-2.9054,-2.9048,-2.9043,-2.9044,-2.9044,-2.9044,-2.9044,-2.9044,-2.9044,-2.8636,-2.8669,-2.8688,-2.8734,-2.8758,-2.8792,-2.881,-2.8834,-2.8858,-2.8898,-2.8924,-2.8944,-2.8973,-2.9006,-2.9034,-2.9041,-2.9052,-2.905,-2.9059,-2.9054,-2.9054,-2.9054,-2.905,-2.9052,-2.9052,-2.9063,-2.9063,-2.9063]}]]